Regional Weather Roundup
Issued by NWS Newport/Morehead, NC

Current Version | Previous Version | Graphics & Text | Print | Product List | Glossary On
Versions: 1 2 3 4 5 6 7 8 9 10 11 12 13 14 15 16 17 18 19 20 21 22 23 24 25 26 27 28 29 30 31 32 33 34 35 36 37 38 39 40 41 42 43 44 45 46 47 48 49 50
000 ASUS42 KMHX 051713 RWRMHX WEATHER ROUNDUP FOR EASTERN NORTH CAROLINA NATIONAL WEATHER SERVICE NEWPORT/MOREHEAD CITY NC 100 PM EDT THU MAY 05 2016 NOTE: "FAIR" INDICATES FEW OR NO CLOUDS BELOW 12,000 FEET WITH NO SIGNIFICANT WEATHER AND/OR OBSTRUCTIONS TO VISIBILITY NCZ015>017-031-032-045>047-102-103-051800- NORTH COAST CITY SKY/WX TMP DP RH WIND PRES REMARKS EDENTON CLOUDY 58 55 91 NE10 29.56F ELIZABETH CITY CLOUDY 55 50 83 NE23G30 29.55F KITTY HAWK CLOUDY 56 50 81 N9G18 29.52F MANTEO CLOUDY 56 52 88 NE18G25 29.53F $$ NCZ045>047-081-094-103-104-051800- CENTRAL COAST CITY SKY/WX TMP DP RH WIND PRES REMARKS FRISCO CLOUDY 60 56 86 NE14G25 29.49F SWANQUARTER NOT AVBL $$ NCZ095-097-098-100-101-051800- SOUTHERN COAST CITY SKY/WX TMP DP RH WIND PRES REMARKS BEAUFORT PTSUNNY 68 58 70 N15 29.49F CEDAR ISLAND NOT AVBL JACKSONVILLE PTSUNNY 69 56 62 E6 29.48F PINEY ISLAND CLOUDY N/A N/A N/A N12 29.51F WILMINGTON TSTM 67 61 81 S7 29.49F $$ NCZ011>013-027>030-043-044-078>080-089-090>093-098-051800- COASTAL PLAIN CITY SKY/WX TMP DP RH WIND PRES REMARKS AHOSKIE CLOUDY 54 52 93 N8 29.57F CLINTON HVY RAIN 58 57 97 NW9 29.52R ELIZABETHTOWN RAIN 67 56 69 W14G21 29.52R GOLDSBORO LGT RAIN 59 59 100 N9 29.51F GREENVILLE CLOUDY 59 54 82 NE9 29.57F FOG HAVELOCK PTSUNNY 66 56 70 NE8 29.51F KENANSVILLE CLOUDY 63 59 85 CALM 29.50F KINSTON CLOUDY 61 57 88 N7 29.52F NEW BERN CLOUDY 67 56 67 NE12 29.52F RICHLANDS TSTM 62 59 90 W9G17 29.51S FOG ROCKY MOUNT LGT RAIN 56 55 97 E5 29.54F FOG WASHINGTON CLOUDY 58 53 83 NE7 29.53F WHITEVILLE NOT AVBL $$ AMZ130-135-150-152-154-156-158-170-250-252-270-ANZ085-086-088-633-658-670-051800- MARINE OBSERVATIONS STATION/POSITION TIME TEMP WIND PRES WAVE SWELL AIR SEA DIR/SP/G HT/PER HT/PER (UTC) (F) (DEG/KT/KT) (MB) (FT/S) (FT/S) CHESAPEAKE LIGHT 1700 50 30/ 26/ 28 1001.5 64 E VA BEACH 1650 51 52 10/ 23/ 27 999.1 7/ 7 DUCK 1600 51 61 30/ 24/ 26 1000.2 2 E DUCK 1611 59 N/A 6/ 7 OREGON INLET 1600 53 61 360/ 18/ 24 999.7 13E OREGON INLT 1700 56 N/A 7/ 6 2/25 HATTERAS CG 1600 59 68 20/ 19/ 25 998.6 DIAMOND BUOY 1650 59 71 30/ 21/ 23 998.1 6/ 6 2/ 9 CAPE LOOKOUT 1700 63 40/ 13/ 15 998.4 BEAUFORT LAB 1600 64 67 40/ 11/ 15 998.3 30 SE NEW RVR IN 1625 72 N/A 4/ 7 27 SE WRIGHTSVLE 1608 66 72 40/ 6/ 10 999.4 5 SE WRIGHTSVLE 1608 66 70 110/ 8/ 12 1000.1 225 S CAPE HAT 1650 74 74 270/ 21/ 25 1000.3 6/ 8 41 SE CHARLESTON 1650 65 74 270/ 21/ 27 1001.4 5/ 5 2/ 8 $$

USA.gov is the U.S. government's official web portal to all federal, state and local government web resources and services.